weather.gov     
National Weather Service

Regional Weather Roundup
NWS Homepage
This page is being discontinued on March 12, 2014.
The same data is available at this site. Please update your bookmarks.
Thank you, and we apologize for the inconvenience.
Please send an email to SR-SRH.Webmaster@noaa.gov with any concerns.


Current Version
Previous Version:    01  02  03  04  05  06  07  08  09  10  11  12  13  14  15  16  17  18  19  20  21  22  23  24  25  26  27  28  29  30  
   31  32  33  34  35  36  37  38  39  40  41  42  43  44  45  46  47  48  49  50  51  52  53  
[Printable]
049
ASUS43 KLSX 312207
RWRMO

WEATHER SUMMARY FOR MISSOURI
NATIONAL WEATHER SERVICE SPRINGFIELD MO
500 PM CDT FRI OCT 31 2014

NOTE: "FAIR" INDICATES FEW OR NO CLOUDS BELOW 12,000 FEET WITH NO
       SIGNIFICANT WEATHER AND/OR OBSTRUCTIONS TO VISIBILITY.
       CURRENT SKY AND/OR WEATHER CONDITIONS ARE NOT AVAILABLE FOR
       CHILLICOTHE AND FARMINGTON.

MOZ001>031-035>038-043-044-053-054-312300-
...NORTHERN AND WESTERN MISSOURI...

CITY           SKY/WX    TMP DP  RH WIND       PRES   REMARKS
KANSAS CTY INT SUNNY     45  20  36 N12       30.44F
KANSAS C DTWN  SUNNY     47  16  29 N13       30.45S
LEE`S SUMMIT   SUNNY     45  16  31 N14       30.44S
ST JOSEPH      SUNNY     46  18  32 N9        30.46F
CHILLICOTHE      N/A     46  19  34 N9        30.45R
KIRKSVILLE     SUNNY     42  20  41 N17       30.41R

$$
MOZ066>068-077>081-088>096-101>105-312300-
...SOUTHWEST MISSOURI...

CITY           SKY/WX    TMP DP  RH WIND       PRES   REMARKS
SPRINGFIELD    SUNNY     46  19  34 N21G26    30.36R
JOPLIN         SUNNY     47  20  34 N10G23    30.41R

$$
MOZ032>034-039>042-045>050-055>058-069>072-312300-
...CENTRAL MISSOURI...

CITY           SKY/WX    TMP DP  RH WIND       PRES   REMARKS
COLUMBIA       SUNNY     45  16  31 N12G24    30.37R
JEFFERSON CITY SUNNY     47  13  25 N12G23    30.38R
ROLLA          SUNNY     43  19  38 N15G24    30.32R
SEDALIA        SUNNY     46  16  30 N13       30.42R
WHITEMAN AFB   SUNNY     44  16  32 NW14      30.41S
OSAGE BEACH    SUNNY     45  18  33 N6G20     30.37S

$$
MOZ051-052-059>065-312300-
...EAST CENTRAL MISSOURI...

CITY           SKY/WX    TMP DP  RH WIND       PRES   REMARKS
ST LOUIS INTL  MOSUNNY   46  19  34 NW22G28   30.31R
SPIRIT OF STL  MOSUNNY   45  20  36 N18G26    30.33R
ST CHARLES     SUNNY     45  20  36 N23G30    30.32R

$$
MOZ072>076-082>087-097>100-106>115-312300-
...SOUTH CENTRAL AND SOUTHEAST MISSOURI...

CITY           SKY/WX    TMP DP  RH WIND       PRES   REMARKS
CAPE GIRARDEAU MOSUNNY   47  24  40 N17G24    30.26R
FARMINGTON     MOSUNNY  N/A N/A N/A NW18G28   30.29S
POPLAR BLUFF   SUNNY     49  18  29 N22G29    30.25R
WEST PLAINS    SUNNY     46  17  31 N15G22    30.30R

$$




U.S. Dept. of Commerce
NOAA National Weather Service
1325 East West Highway
Silver Spring, MD 20910
E-mail: w-nws.webmaster@noaa.gov
Page last modified: May 16, 2007
NATIONAL WEATHER SERVICE: for Safety, for Work, for Fun - FOR LIFE